Regional Weather Roundup
Issued by NWS

Home | Current Version | Previous Version | Text Only | Print | Product List | Glossary Off
Versions: 1 2 3 4 5 6 7 8 9 10 11 12 13 14 15 16 17 18 19 20 21 22 23 24 25 26 27 28 29 30 31 32 33 34 35 36 37 38 39 40 41 42 43 44 45 46 47 48 49 50

000
ASUS43 KLMK 181910
RWRKY
KENTUCKY REGIONAL WEATHER ROUNDUP
NATIONAL WEATHER SERVICE LOUISVILLE KY
300 PM EDT WED OCT 18 2017

NOTE "FAIR" INDICATES FEW OR NO CLOUDS BELOW 12,000 FEET
WITH NO SIGNIFICANT WEATHER AND/OR OBSTRUCTIONS TO VISIBILITY.

KYZ001>023-026-027-061>063-070>075-182000-
WESTERN AND SOUTH CENTRAL KENTUCKY

CITY           SKY/WX    TMP DP  RH WIND       PRES   REMARKS
PADUCAH        SUNNY     72  45  37 S9        30.20F
HENDERSON      SUNNY     72  45  37 S13G18    30.22F
OWENSBORO      SUNNY     70  47  43 S12       30.23F
HOPKINSVILLE   SUNNY     70  45  40 S9        30.23F
BOWLING GREEN  SUNNY     71  44  37 S12       30.26F
GLASGOW        SUNNY     71  43  36 SW3       30.26F
$$

KYZ024-025-028>034-038-045-046-053-182000-
NORTH CENTRAL KENTUCKY

CITY           SKY/WX    TMP DP  RH WIND       PRES   REMARKS
LOUISVILLE/SDF PTSUNNY   71  45  39 S8        30.24F
LOUISVILLE/LOU SUNNY     69  48  47 VRB3      30.26F
FORT KNOX      MOSUNNY   70  46  42 S8        30.24F
$$

KYZ035>037-039>044-047>052-055>060-089>105-182000-
NORTHEAST KENTUCKY

CITY           SKY/WX    TMP DP  RH WIND       PRES   REMARKS
LEXINGTON      SUNNY     70  46  42 SW10      30.27F
COVINGTON      MOSUNNY   68  46  45 S8        30.24F
FRANKFORT      SUNNY     70  42  36 VRB7      30.25F
$$

KYZ054-064>069-076>088-106>120-182000-
SOUTHEAST KENTUCKY

CITY           SKY/WX    TMP DP  RH WIND       PRES   REMARKS
JACKSON        SUNNY     67  40  37 VRB5      30.29F
LONDON         SUNNY     67  40  37 SW6       30.29F
SOMERSET       SUNNY     64  43  45 S5        30.30F
MIDDLESBORO    SUNNY     68  43  40 S3        30.30F
MONTICELLO     CLEAR     69  45  41 W13       30.30F
$$




USA.gov is the U.S. government's official web portal to all federal, state and local government web resources and services.